Location: Milton
(43.5183°N, 79.8775°W)
Time: 08:56:26
(UTC+00:00)

UNISAT 6 - Pass Details

Date: 29 March 2023
Orbit: 599 x 680 km, 97.7° (Epoch: 02 June)

Event Time Altitude Azimuth Distance (km) Brightness Sun altitude
Rises 10:29:57 0° 181° (S) 2,888 ? -7.5°
Reaches altitude 10° 10:32:10 10° 187° (S) 1,999 ? -7.1°
Maximum altitude 10:36:22 47° 261° (W) 853 ? -6.3°
Drops below altitude 10° 10:40:43 10° 336° (NNW) 2,065 ? -5.5°
Sets 10:43:03 0° 342° (NNW) 2,994 ? -5.1°
